Location: ??????????
(44.2167°N, 135.5333°E)
Time: 15:17:33
(UTC+00:00)

USA 290 - Pass Details

Date: 15 June 2025
Orbit: 392 x 417 km, 73.6° (Epoch: 20 June)

Event Time Altitude Azimuth Distance (km) Brightness Sun altitude
Exits shadow 13:37:10 24° 253° (WSW) 879 3.9 -19.9°
Maximum altitude 13:38:23 32° 296° (WNW) 702 3.7 -20.0°
Drops below altitude 10° 13:41:18 10° 3° (N) 1,455 6.0 -20.2°
Sets 13:43:29 0° 13° (NNE) 2,323 7.0 -20.3°
